{"data":{"norad_id":52131,"intl_designator":"2022-029AV","name":"STARLINK-3711","alt_names":[],"object_type":"PAYLOAD","status":"ACTIVE","operator":null,"country":"US","launch_date":"2022-03-19","launch_site_code":"AFETR","launch_vehicle":null,"mission":null,"orbit_class":"UNKNOWN","rcs_meters":null,"size_class":null,"mass_kg":null,"dimensions":null,"purposes":["comms"],"wikipedia_slug":null,"has_3d_model":false,"image_url":null,"decayed_at":null,"tle_current":{"epoch":"2026-05-25T04:39:22.831200Z","epoch_age_seconds":68756,"freshness":"FRESH","line1":"1 52131U 22029AV  26145.19401425  .00022079  00000+0  11033-2 0  9990","line2":"2 52131  53.2133  80.2199 0003883  81.0790 279.0646 15.17405340232569","mean_motion":15.1740534,"eccentricity":0.0003883,"inclination_deg":53.2133,"raan_deg":80.2199,"arg_perigee_deg":81.079,"mean_anomaly_deg":279.0646,"bstar":0.0011033,"rev_number":23256,"period_min":94.898835666415,"perigee_km":511.00970678332,"apogee_km":516.36189637102,"semimajor_km":6891.8228015772,"source":"CELESTRAK","updated_at":"2026-05-25T13:38:17.077351Z"}}}